ONEWEB-0280 (48998 NORAD) Tracking and Keplerian Element Data

This shows tracking and keplerian element data for the satellite.

Feedback or suggestion? Click here.




ElementValue
Catalog48998
NameONEWEB-0280
Epoch Orbit362
Epoch Day210.91668981
Epoch Year2021
RAAN227.5571
Inclination87.4229
Eccentricity0.0006527
Argument of Perigee156.5824
Mean Anonmoly211.7584
Mean Motion14.9322271
Decay Rate-0.01394724
L11 48998U 21060AH 21210.91668981 -.01394724 00000-0 -14589+0 0 9999
L22 48998 87.4229 227.5571 0006527 156.5824 211.7584 14.93222710 3622

Live tracking and technical data element details for ONEWEB-0280 (NORAD 48998). ONEWEB-0280 can be tracked NOW for your location showing map with azimuth and elevation plus other details from your city location.

Track the satellite on the map from your city or location and see movement details for azimuth, elevation, latitude, longitude, range, height, and movement on the map or in text.







IsCatalogInMostPopularTable: catalog: 48998, numindb: 3
Update: records affected: 1



GetName: 48998 ONEWEB-0280

Hit Count: updated at: Sat, 31 Jul 2021 15:18:30 GMT